Location: Potomac Astrometric Observatory
(39.0475°N, 77.2064°W)
Time: 07:52:38
(UTC-04:00)

Hubble Space Telescope - Visible Passes

Search period start: 23 September 2018 00:00
Search period end: 03 October 2018 00:00
Orbit: 537 x 541 km, 28.5° (Epoch: 22 September)

Date Brightness Start Highest point End Pass type
(mag) Time Alt. Az. Time Alt. Az. Time Alt. Az.
23 Sep 2.8 19:42:54 10° SW 19:45:43 18° S 19:48:32 10° SE visible
24 Sep 2.9 19:32:32 10° SW 19:35:13 17° S 19:37:54 10° SSE visible
25 Sep 3.1 19:22:13 10° SW 19:24:43 16° S 19:27:13 10° SSE visible
